CW2334 Weather Reports


time (UTC)temp
C
wind
direction
speed
KPH
gust
KPH
rain 1hr
cm
rain 24hr
cm
rain mn
cm
humidity
%
barometer
mb
20260510152330 13 311 0.0 11.3 0.00 0.69 0.00 52 1016.0
20260510145330 12 357 0.0 8.0 0.00 0.69 0.00 50 1015.8
20260510142329 11 78 1.6 9.7 0.00 0.69 0.00 55 1015.7
20260510135329 10 346 0.0 11.3 0.00 0.69 0.00 57 1015.7
20260510132329 10 285 0.0 16.1 0.00 0.69 0.00 65 1015.1
20260510125328 8 38 3.2 9.7 0.00 0.69 0.00 72 1014.5
20260510115327 7 68 0.0 8.0 0.00 0.69 0.00 85 1013.1
20260510112327 7 31 0.0 3.2 0.00 0.69 0.00 90 1012.7
20260510102326 7 17 0.0 0.0 0.00 0.69 0.00 92 1011.6
20260510092325 8 17 0.0 0.0 0.00 0.69 0.00 94 1011.1
20260510085325 8 17 0.0 0.0 0.00 0.69 0.00 93 1010.7
20260510082324 8 17 0.0 0.0 0.00 0.69 0.00 93 1010.3
20260510075324 9 17 0.0 0.0 0.00 0.69 0.00 92 1009.9
20260510072324 9 17 0.0 0.0 0.00 0.69 0.00 92 1009.6
20260510065323 10 17 0.0 1.6 0.00 0.71 0.00 91 1009.3
20260510062323 10 17 0.0 3.2 0.00 0.71 0.00 91 1009.2
20260510055322 11 13 0.0 6.4 0.00 0.71 0.00 90 1008.9
20260510052322 12 311 0.0 9.7 0.00 0.71 0.00 91 1008.8
20260510045322 12 158 0.0 6.4 0.00 0.74 0.00 94 1007.5
20260510042322 12 158 0.0 3.2 0.00 0.74 0.00 94 1006.6
20260510035321 12 158 0.0 6.4 0.00 0.74 0.00 96 1006.6
20260510032320 12 180 0.0 0.0 0.00 0.76 0.74 96 1006.4
20260510025320 12 180 0.0 6.4 0.00 0.76 0.74 96 1006.6
20260510022320 12 136 0.0 0.0 0.00 0.76 0.74 96 1005.8
20260510015319 12 136 0.0 0.0 0.00 0.79 0.74 95 1006.0
20260510012319 12 136 0.0 0.0 0.00 0.79 0.74 95 1005.7
20260510005318 12 136 0.0 0.0 0.00 0.81 0.74 95 1005.4
20260509235317 13 136 0.0 4.8 0.46 0.94 0.74 94 1005.3
20260509232317 12 90 0.0 11.3 0.69 1.04 0.74 92 1005.3
20260509225316 14 323 1.6 20.9 0.23 0.69 0.28 79 1005.4
20260509222316 20 170 3.2 9.7 0.00 0.51 0.05 59 1003.5
20260509212315 20 193 1.6 19.3 0.00 0.53 0.05 59 1002.8
20260509205314 20 175 0.0 14.5 0.00 0.53 0.05 58 1003.5
20260509202314 20 194 0.0 19.3 0.00 0.56 0.05 56 1004.0
20260509195314 20 180 0.0 11.3 0.00 0.56 0.05 59 1004.2
20260509192314 20 170 6.4 16.1 0.00 0.56 0.05 59 1004.8
20260509185314 20 170 4.8 19.3 0.00 0.56 0.05 59 1005.2
20260509182313 20 190 0.0 16.1 0.00 0.56 0.05 62 1005.0
20260509175313 20 142 1.6 14.5 0.00 0.56 0.05 62 1005.3
20260509165312 18 21 4.8 11.3 0.00 0.56 0.05 75 1005.5
20260509162312 17 186 1.6 8.0 0.00 0.56 0.05 74 1005.8
20260509155312 15 100 0.0 8.0 0.00 0.56 0.05 83 1006.1